Flag for United Kingdom Weather past 2 weeks in Aberdeen, Scotland, United Kingdom

Now
52 °F

Scattered clouds.


Feels Like: 47 °F
Forecast: 48 / 54 °F
Wind: 13 mph from Northwest

Location: Aberdeen / Dyce

Current Time: May 25, 2015 at 10:39:03 AM

Latest Report: May 25, 2015 at 10:20 AM


Visibility: N/A

Pressure: 29.98 "Hg

Humidity: 62%

Dew point: 39 °F

Location of AberdeenLocation

Historic Weather in Aberdeen — Graph

°F

Aberdeen temperature yesterday

Maximum temperature yesterday: 57 °F (at 6:20 PM)
Minimum temperature yesterday: 48 °F (at 9:50 PM)
Average temperature yesterday: 53 °F

Past Weeks' High & Low Weather Summary

 TemperatureHumidityPressure
High63 °F (May 22, 10:20 AM)100% (May 10, 11:50 AM)30.30 "Hg (May 10, 11:50 AM)
Low34 °F (May 15, 4:50 AM)33% (May 17, 4:50 PM)29.33 "Hg (May 19, 12:50 AM)
Average50 °F71%29.87 "Hg
* Reported May 10 9:20 AM — May 25 9:20 AM, Aberdeen, Weather by CustomWeather, © 2015

Note: Actual official high and low records may vary slightly from our data, if they occured in-between our weather recording intervals... More about our weather records

Advertising

Aberdeen weather history for previous 24 hours

 ConditionsComfort  
Time TempWeatherWind HumidityBarometerVisibility
9:20 AM
Mon, May 25
50 °FScattered showers. Scattered clouds.12 mph76%29.98 "HgN/A
8:50 AM48 °FScattered showers. Broken clouds.10 mph82%29.98 "HgN/A
8:20 AM50 °FPartly sunny.10 mph71%29.98 "HgN/A
7:50 AM48 °FPartly sunny.9 mph82%29.98 "HgN/A
7:20 AM46 °FPartly sunny.7 mph82%29.98 "HgN/A
6:50 AM46 °FLight rain. Partly sunny.7 mph82%29.98 "Hg5 mi
6:20 AM46 °FScattered showers. Broken clouds.7 mph82%29.95 "HgN/A
5:50 AM46 °FBroken clouds.7 mph82%29.95 "HgN/A
5:20 AM46 °FPassing clouds.7 mph82%29.95 "HgN/A
4:50 AM46 °FLight rain. Passing clouds.6 mph82%29.95 "HgN/A
4:20 AM46 °FLight rain. Overcast.5 mph76%29.95 "HgN/A
3:50 AM46 °FPassing clouds.6 mph76%29.95 "HgN/A
3:20 AM46 °FPassing clouds.7 mph76%29.95 "HgN/A
2:50 AM46 °FPassing clouds.5 mph76%29.95 "HgN/A
2:20 AM46 °FPassing clouds.7 mph76%29.95 "HgN/A
1:50 AM46 °FPassing clouds.7 mph76%29.95 "HgN/A
1:20 AM46 °FPassing clouds.6 mph76%29.95 "HgN/A
12:50 AM48 °FPassing clouds.6 mph71%29.95 "HgN/A
12:20 AM48 °FPassing clouds.5 mph71%29.95 "HgN/A
11:50 PM
Sun, May 24
48 °FPassing clouds.7 mph71%29.95 "HgN/A
11:20 PM48 °FPassing clouds.7 mph71%29.95 "HgN/A
10:20 PM48 °FPassing clouds.7 mph71%29.95 "HgN/A
9:50 PM48 °FPassing clouds.8 mph71%29.95 "HgN/A
9:20 PM50 °FScattered clouds.8 mph71%29.95 "HgN/A
8:50 PM52 °FSunny.10 mph62%29.95 "Hg10 mi
8:20 PM54 °FSunny.12 mph58%29.95 "Hg10 mi
7:50 PM54 °FPassing clouds.8 mph58%29.95 "HgN/A
7:20 PM54 °FPassing clouds.9 mph58%29.95 "HgN/A
6:50 PM55 °FPassing clouds.10 mph55%29.95 "HgN/A
6:20 PM57 °FScattered clouds.9 mph51%29.95 "HgN/A
5:50 PM55 °FPartly sunny.10 mph51%29.92 "HgN/A
5:20 PM54 °FPartly sunny.9 mph63%29.92 "HgN/A
4:50 PM55 °FPartly sunny.9 mph55%29.92 "HgN/A
4:20 PM55 °FPartly sunny.10 mph55%29.92 "HgN/A
3:50 PM55 °FPartly sunny.12 mph55%29.95 "HgN/A
3:20 PM55 °FPartly sunny.7 mph55%29.95 "HgN/A
2:50 PM55 °FPartly sunny.9 mph51%29.95 "HgN/A
2:20 PM54 °FPartly sunny.12 mph54%29.95 "HgN/A
1:50 PM55 °FPartly sunny.10 mph51%29.95 "HgN/A
1:20 PM54 °FPartly sunny.9 mph58%29.92 "HgN/A
12:50 PM55 °FPartly sunny.12 mph55%29.92 "HgN/A
12:20 PM55 °FPartly sunny.13 mph51%29.92 "HgN/A
11:50 AM55 °FPartly sunny.13 mph51%29.92 "HgN/A
11:20 AM54 °FPartly sunny.12 mph54%29.92 "HgN/A
10:50 AM54 °FPartly sunny.12 mph54%29.92 "HgN/A
10:20 AM54 °FPartly sunny.13 mph58%29.92 "HgN/A
Weather by CustomWeather, © 2015

See weather overviewHow to use our weather pages